owner,sensor,date,latitude,longitude,vertical_datum,sea_water_practical_salinity,qcFlag 
SCCF RECON,ioos:station:SCCF:18:1,2019-07-01T04:00:00Z,26.6955,-81.8138,0.989,0.27,11111222 
SCCF RECON,ioos:station:SCCF:18:1,2019-07-01T05:00:00Z,26.6955,-81.8138,1.05,0.28,11111222 
SCCF RECON,ioos:station:SCCF:18:1,2019-07-01T06:00:00Z,26.6955,-81.8138,1.13,0.27,11111222 
SCCF RECON,ioos:station:SCCF:18:1,2019-07-01T07:00:00Z,26.6955,-81.8138,1.18,0.29,11111222 
SCCF RECON,ioos:station:SCCF:18:1,2019-07-01T08:00:00Z,26.6955,-81.8138,1.22,0.27,11111222 
SCCF RECON,ioos:station:SCCF:18:1,2019-07-01T09:00:00Z,26.6955,-81.8138,1.26,0.27,11111222 
SCCF RECON,ioos:station:SCCF:18:1,2019-07-01T11:00:00Z,26.6955,-81.8138,1.18,0.27,11111222 
SCCF RECON,ioos:station:SCCF:18:1,2019-07-01T12:00:00Z,26.6955,-81.8138,1.128,0.26,11111222 
SCCF RECON,ioos:station:SCCF:18:1,2019-07-01T13:00:00Z,26.6955,-81.8138,1.118,0.26,11111222 
SCCF RECON,ioos:station:SCCF:18:1,2019-07-01T14:00:00Z,26.6955,-81.8138,1.139,0.26,11111222 
SCCF RECON,ioos:station:SCCF:18:1,2019-07-01T16:00:00Z,26.6955,-81.8138,1.31,0.27,11111222 
SCCF RECON,ioos:station:SCCF:18:1,2019-07-01T17:00:00Z,26.6955,-81.8138,1.387,0.27,11111222 
SCCF RECON,ioos:station:SCCF:18:1,2019-07-01T18:00:00Z,26.6955,-81.8138,1.422,0.27,11111222 
SCCF RECON,ioos:station:SCCF:18:1,2019-07-01T19:00:00Z,26.6955,-81.8138,1.461,0.27,11111222 
SCCF RECON,ioos:station:SCCF:18:1,2019-07-01T20:00:00Z,26.6955,-81.8138,1.442,0.27,11111222 
SCCF RECON,ioos:station:SCCF:18:1,2019-07-01T21:00:00Z,26.6955,-81.8138,1.366,0.26,11111222 
SCCF RECON,ioos:station:SCCF:18:1,2019-07-01T22:00:00Z,26.6955,-81.8138,1.274,0.26,11111222 
SCCF RECON,ioos:station:SCCF:18:1,2019-07-01T23:00:00Z,26.6955,-81.8138,1.22,0.26,11111222 
SCCF RECON,ioos:station:SCCF:18:1,2019-07-02T04:00:00Z,26.6955,-81.8138,0.93,0.27,11111222 
SCCF RECON,ioos:station:SCCF:18:1,2019-07-02T05:00:00Z,26.6955,-81.8138,0.92,0.26,11111222 
SCCF RECON,ioos:station:SCCF:18:1,2019-07-02T06:00:00Z,26.6955,-81.8138,0.99,0.27,11111222 
SCCF RECON,ioos:station:SCCF:18:1,2019-07-02T07:00:00Z,26.6955,-81.8138,1.071,0.26,11111222 
SCCF RECON,ioos:station:SCCF:18:1,2019-07-02T08:00:00Z,26.6955,-81.8138,1.13,0.29,11111222 
SCCF RECON,ioos:station:SCCF:18:1,2019-07-02T09:00:00Z,26.6955,-81.8138,1.167,0.28,11111222 
SCCF RECON,ioos:station:SCCF:18:1,2019-07-02T10:00:00Z,26.6955,-81.8138,1.179,0.27,11111222 
SCCF RECON,ioos:station:SCCF:18:1,2019-07-02T11:00:00Z,26.6955,-81.8138,1.142,0.27,11111222 
SCCF RECON,ioos:station:SCCF:18:1,2019-07-02T12:00:00Z,26.6955,-81.8138,1.104,0.27,11111222 
SCCF RECON,ioos:station:SCCF:18:1,2019-07-02T13:00:00Z,26.6955,-81.8138,1.073,0.27,11111222 
SCCF RECON,ioos:station:SCCF:18:1,2019-07-02T14:00:00Z,26.6955,-81.8138,1.06,0.27,11111222 
SCCF RECON,ioos:station:SCCF:18:1,2019-07-02T15:00:00Z,26.6955,-81.8138,1.079,0.26,11111222 
SCCF RECON,ioos:station:SCCF:18:1,2019-07-02T16:00:00Z,26.6955,-81.8138,1.17,0.27,11111222 
SCCF RECON,ioos:station:SCCF:18:1,2019-07-02T17:00:00Z,26.6955,-81.8138,1.268,0.27,11111222 
SCCF RECON,ioos:station:SCCF:18:1,2019-07-02T18:00:00Z,26.6955,-81.8138,1.33,0.27,11111222 
SCCF RECON,ioos:station:SCCF:18:1,2019-07-02T19:00:00Z,26.6955,-81.8138,1.38,0.27,11111222 
SCCF RECON,ioos:station:SCCF:18:1,2019-07-02T20:00:00Z,26.6955,-81.8138,1.43,0.28,11111222 
SCCF RECON,ioos:station:SCCF:18:1,2019-07-02T21:00:00Z,26.6955,-81.8138,1.404,0.27,11111222 
SCCF RECON,ioos:station:SCCF:18:1,2019-07-02T22:00:00Z,26.6955,-81.8138,1.33,0.27,11111222 
SCCF RECON,ioos:station:SCCF:18:1,2019-07-02T23:00:00Z,26.6955,-81.8138,1.24,0.27,11111222 
SCCF RECON,ioos:station:SCCF:18:1,2019-07-03T04:00:00Z,26.6955,-81.8138,0.94,0.27,11111222 
SCCF RECON,ioos:station:SCCF:18:1,2019-07-03T05:00:00Z,26.6955,-81.8138,0.9,0.27,11111222 
SCCF RECON,ioos:station:SCCF:18:1,2019-07-03T06:00:00Z,26.6955,-81.8138,0.91,0.27,11111222 
SCCF RECON,ioos:station:SCCF:18:1,2019-07-03T07:00:00Z,26.6955,-81.8138,0.988,0.27,11111222 
SCCF RECON,ioos:station:SCCF:18:1,2019-07-03T08:00:00Z,26.6955,-81.8138,1.072,0.29,11111222 
SCCF RECON,ioos:station:SCCF:18:1,2019-07-03T09:00:00Z,26.6955,-81.8138,1.13,0.28,11111222 
SCCF RECON,ioos:station:SCCF:18:1,2019-07-03T10:00:00Z,26.6955,-81.8138,1.17,0.29,11111222 
SCCF RECON,ioos:station:SCCF:18:1,2019-07-03T11:00:00Z,26.6955,-81.8138,1.17,0.27,11111222 
SCCF RECON,ioos:station:SCCF:18:1,2019-07-03T12:00:00Z,26.6955,-81.8138,1.13,0.27,11111222 
SCCF RECON,ioos:station:SCCF:18:1,2019-07-03T13:00:00Z,26.6955,-81.8138,1.07,0.27,11111222 
SCCF RECON,ioos:station:SCCF:18:1,2019-07-03T14:00:00Z,26.6955,-81.8138,1.03,0.27,11111222 
SCCF RECON,ioos:station:SCCF:18:1,2019-07-03T15:00:00Z,26.6955,-81.8138,1.012,0.28,11111222 
SCCF RECON,ioos:station:SCCF:18:1,2019-07-03T16:00:00Z,26.6955,-81.8138,1.07,0.27,11111222 
SCCF RECON,ioos:station:SCCF:18:1,2019-07-03T17:00:00Z,26.6955,-81.8138,1.18,0.27,11111222 
SCCF RECON,ioos:station:SCCF:18:1,2019-07-03T18:00:00Z,26.6955,-81.8138,1.266,0.28,11111222 
SCCF RECON,ioos:station:SCCF:18:1,2019-07-03T19:00:00Z,26.6955,-81.8138,1.32,0.29,11111222 
SCCF RECON,ioos:station:SCCF:18:1,2019-07-03T20:00:00Z,26.6955,-81.8138,1.38,0.29,11111222 
SCCF RECON,ioos:station:SCCF:18:1,2019-07-03T21:00:00Z,26.6955,-81.8138,1.43,0.3,11111222 
SCCF RECON,ioos:station:SCCF:18:1,2019-07-03T22:00:00Z,26.6955,-81.8138,1.42,0.3,11111222 
SCCF RECON,ioos:station:SCCF:18:1,2019-07-03T23:00:00Z,26.6955,-81.8138,1.33,0.29,11111222 
SCCF RECON,ioos:station:SCCF:18:1,2019-07-04T04:00:00Z,26.6955,-81.8138,0.98,0.27,11111222 
SCCF RECON,ioos:station:SCCF:18:1,2019-07-04T05:00:00Z,26.6955,-81.8138,0.92,0.27,11111222 
SCCF RECON,ioos:station:SCCF:18:1,2019-07-04T06:00:00Z,26.6955,-81.8138,0.9,0.27,11111222 
SCCF RECON,ioos:station:SCCF:18:1,2019-07-04T07:00:00Z,26.6955,-81.8138,0.93,0.28,11111222 
SCCF RECON,ioos:station:SCCF:18:1,2019-07-04T08:00:00Z,26.6955,-81.8138,1.0,0.28,11111222 
SCCF RECON,ioos:station:SCCF:18:1,2019-07-04T09:00:00Z,26.6955,-81.8138,1.076,0.28,11111222 
SCCF RECON,ioos:station:SCCF:18:1,2019-07-04T10:00:00Z,26.6955,-81.8138,1.12,0.29,11111222 
SCCF RECON,ioos:station:SCCF:18:1,2019-07-04T11:00:00Z,26.6955,-81.8138,1.15,0.28,11111222 
SCCF RECON,ioos:station:SCCF:18:1,2019-07-04T13:00:00Z,26.6955,-81.8138,1.13,0.28,11111222 
SCCF RECON,ioos:station:SCCF:18:1,2019-07-04T14:00:00Z,26.6955,-81.8138,1.08,0.28,11111222 
SCCF RECON,ioos:station:SCCF:18:1,2019-07-04T15:00:00Z,26.6955,-81.8138,1.05,0.28,11111222 
SCCF RECON,ioos:station:SCCF:18:1,2019-07-04T16:00:00Z,26.6955,-81.8138,1.08,0.28,11111222 
SCCF RECON,ioos:station:SCCF:18:1,2019-07-04T17:00:00Z,26.6955,-81.8138,1.161,0.36,11111222 
SCCF RECON,ioos:station:SCCF:18:1,2019-07-04T18:00:00Z,26.6955,-81.8138,1.259,0.32,11111222 
SCCF RECON,ioos:station:SCCF:18:1,2019-07-04T19:00:00Z,26.6955,-81.8138,1.328,0.31,11111222 
SCCF RECON,ioos:station:SCCF:18:1,2019-07-04T20:00:00Z,26.6955,-81.8138,1.375,0.32,11111222 
SCCF RECON,ioos:station:SCCF:18:1,2019-07-04T21:00:00Z,26.6955,-81.8138,1.43,0.33,11111222 
SCCF RECON,ioos:station:SCCF:18:1,2019-07-04T22:00:00Z,26.6955,-81.8138,1.46,0.32,11111222 
SCCF RECON,ioos:station:SCCF:18:1,2019-07-04T23:00:00Z,26.6955,-81.8138,1.421,0.35,11111222 
SCCF RECON,ioos:station:SCCF:18:1,2019-07-05T04:00:00Z,26.6955,-81.8138,1.1,0.3,11111222 
SCCF RECON,ioos:station:SCCF:18:1,2019-07-05T05:00:00Z,26.6955,-81.8138,1.03,0.29,11111222 
SCCF RECON,ioos:station:SCCF:18:1,2019-07-05T06:00:00Z,26.6955,-81.8138,0.98,0.28,11111222 
SCCF RECON,ioos:station:SCCF:18:1,2019-07-05T07:00:00Z,26.6955,-81.8138,0.988,0.28,11111222 
SCCF RECON,ioos:station:SCCF:18:1,2019-07-05T08:00:00Z,26.6955,-81.8138,1.03,0.3,11111222 
SCCF RECON,ioos:station:SCCF:18:1,2019-07-05T09:00:00Z,26.6955,-81.8138,1.12,0.3,11111222 
SCCF RECON,ioos:station:SCCF:18:1,2019-07-05T10:00:00Z,26.6955,-81.8138,1.17,0.3,11111222 
SCCF RECON,ioos:station:SCCF:18:1,2019-07-05T11:00:00Z,26.6955,-81.8138,1.22,0.3,11111222 
SCCF RECON,ioos:station:SCCF:18:1,2019-07-05T12:00:00Z,26.6955,-81.8138,1.243,0.3,11111222 
SCCF RECON,ioos:station:SCCF:18:1,2019-07-05T13:00:00Z,26.6955,-81.8138,1.211,0.31,11111222 
SCCF RECON,ioos:station:SCCF:18:1,2019-07-05T14:00:00Z,26.6955,-81.8138,1.16,0.28,11111222 
SCCF RECON,ioos:station:SCCF:18:1,2019-07-05T15:00:00Z,26.6955,-81.8138,1.12,0.28,11111222 
SCCF RECON,ioos:station:SCCF:18:1,2019-07-05T16:00:00Z,26.6955,-81.8138,1.09,0.28,11111222 
SCCF RECON,ioos:station:SCCF:18:1,2019-07-05T17:00:00Z,26.6955,-81.8138,1.11,0.29,11111222 
SCCF RECON,ioos:station:SCCF:18:1,2019-07-05T18:00:00Z,26.6955,-81.8138,1.18,0.35,11111222 
SCCF RECON,ioos:station:SCCF:18:1,2019-07-05T19:00:00Z,26.6955,-81.8138,1.31,0.3,11111222 
SCCF RECON,ioos:station:SCCF:18:1,2019-07-05T20:00:00Z,26.6955,-81.8138,1.36,0.41,11111222 
SCCF RECON,ioos:station:SCCF:18:1,2019-07-05T21:00:00Z,26.6955,-81.8138,1.39,0.36,11111222 
SCCF RECON,ioos:station:SCCF:18:1,2019-07-05T22:00:00Z,26.6955,-81.8138,1.43,0.41,11111222 
SCCF RECON,ioos:station:SCCF:18:1,2019-07-05T23:00:00Z,26.6955,-81.8138,1.458,0.38,11111222 
SCCF RECON,ioos:station:SCCF:18:1,2019-07-06T04:00:00Z,26.6955,-81.8138,1.11,0.3,11111222 
SCCF RECON,ioos:station:SCCF:18:1,2019-07-06T05:00:00Z,26.6955,-81.8138,1.034,0.3,11111222 
SCCF RECON,ioos:station:SCCF:18:1,2019-07-06T06:00:00Z,26.6955,-81.8138,0.98,0.29,11111222 
SCCF RECON,ioos:station:SCCF:18:1,2019-07-06T07:00:00Z,26.6955,-81.8138,0.94,0.28,11111222 
SCCF RECON,ioos:station:SCCF:18:1,2019-07-06T08:00:00Z,26.6955,-81.8138,0.96,0.29,11111222 
SCCF RECON,ioos:station:SCCF:18:1,2019-07-06T09:00:00Z,26.6955,-81.8138,1.03,0.31,11111222 
SCCF RECON,ioos:station:SCCF:18:1,2019-07-06T10:00:00Z,26.6955,-81.8138,1.1,0.3,11111222 
SCCF RECON,ioos:station:SCCF:18:1,2019-07-06T11:00:00Z,26.6955,-81.8138,1.16,0.32,11111222 
SCCF RECON,ioos:station:SCCF:18:1,2019-07-06T12:00:00Z,26.6955,-81.8138,1.2,0.34,11111222 
SCCF RECON,ioos:station:SCCF:18:1,2019-07-06T13:00:00Z,26.6955,-81.8138,1.215,0.32,11111222 
SCCF RECON,ioos:station:SCCF:18:1,2019-07-06T14:00:00Z,26.6955,-81.8138,1.17,0.34,11111222 
SCCF RECON,ioos:station:SCCF:18:1,2019-07-06T15:00:00Z,26.6955,-81.8138,1.111,0.31,11111222 
SCCF RECON,ioos:station:SCCF:18:1,2019-07-06T16:00:00Z,26.6955,-81.8138,1.08,0.3,11111222 
SCCF RECON,ioos:station:SCCF:18:1,2019-07-06T17:00:00Z,26.6955,-81.8138,1.07,0.3,11111222 
SCCF RECON,ioos:station:SCCF:18:1,2019-07-06T18:00:00Z,26.6955,-81.8138,1.089,0.31,11111222 
SCCF RECON,ioos:station:SCCF:18:1,2019-07-06T19:00:00Z,26.6955,-81.8138,1.151,0.31,11111222 
SCCF RECON,ioos:station:SCCF:18:1,2019-07-06T20:00:00Z,26.6955,-81.8138,1.21,0.36,11111222 
SCCF RECON,ioos:station:SCCF:18:1,2019-07-06T21:00:00Z,26.6955,-81.8138,1.29,0.34,11111222 
SCCF RECON,ioos:station:SCCF:18:1,2019-07-06T22:00:00Z,26.6955,-81.8138,1.331,0.38,11111222 
SCCF RECON,ioos:station:SCCF:18:1,2019-07-06T23:00:00Z,26.6955,-81.8138,1.38,0.4,11111222 
SCCF RECON,ioos:station:SCCF:18:1,2019-07-07T04:00:00Z,26.6955,-81.8138,1.141,0.29,11111222 
SCCF RECON,ioos:station:SCCF:18:1,2019-07-07T05:00:00Z,26.6955,-81.8138,1.09,0.29,11111222 
SCCF RECON,ioos:station:SCCF:18:1,2019-07-07T06:00:00Z,26.6955,-81.8138,1.02,0.29,11111222 
SCCF RECON,ioos:station:SCCF:18:1,2019-07-07T07:00:00Z,26.6955,-81.8138,0.962,0.28,11111222 
SCCF RECON,ioos:station:SCCF:18:1,2019-07-07T08:00:00Z,26.6955,-81.8138,0.95,0.28,11111222 
SCCF RECON,ioos:station:SCCF:18:1,2019-07-07T09:00:00Z,26.6955,-81.8138,1.0,0.29,11111222 
SCCF RECON,ioos:station:SCCF:18:1,2019-07-07T10:00:00Z,26.6955,-81.8138,1.079,0.29,11111222 
SCCF RECON,ioos:station:SCCF:18:1,2019-07-07T11:00:00Z,26.6955,-81.8138,1.145,0.29,11111222 
SCCF RECON,ioos:station:SCCF:18:1,2019-07-07T12:00:00Z,26.6955,-81.8138,1.2,0.29,11111222 
SCCF RECON,ioos:station:SCCF:18:1,2019-07-07T14:00:00Z,26.6955,-81.8138,1.23,0.29,11111222 
SCCF RECON,ioos:station:SCCF:18:1,2019-07-07T15:00:00Z,26.6955,-81.8138,1.17,0.29,11111222 
SCCF RECON,ioos:station:SCCF:18:1,2019-07-07T16:00:00Z,26.6955,-81.8138,1.1,0.28,11111222 
SCCF RECON,ioos:station:SCCF:18:1,2019-07-07T17:00:00Z,26.6955,-81.8138,1.088,0.28,11111222 
SCCF RECON,ioos:station:SCCF:18:1,2019-07-07T18:00:00Z,26.6955,-81.8138,1.05,0.28,11111222 
SCCF RECON,ioos:station:SCCF:18:1,2019-07-07T19:00:00Z,26.6955,-81.8138,1.04,0.28,11111222 
SCCF RECON,ioos:station:SCCF:18:1,2019-07-07T20:00:00Z,26.6955,-81.8138,1.08,0.28,11111222 
SCCF RECON,ioos:station:SCCF:18:1,2019-07-07T21:00:00Z,26.6955,-81.8138,1.179,0.28,11111222 
SCCF RECON,ioos:station:SCCF:18:1,2019-07-07T22:00:00Z,26.6955,-81.8138,1.25,0.3,11111222 
SCCF RECON,ioos:station:SCCF:18:1,2019-07-07T23:00:00Z,26.6955,-81.8138,1.29,0.29,11111222 
SCCF RECON,ioos:station:SCCF:18:1,2019-07-08T04:00:00Z,26.6955,-81.8138,1.131,0.28,11111222 
SCCF RECON,ioos:station:SCCF:18:1,2019-07-08T05:00:00Z,26.6955,-81.8138,1.09,0.28,11111222 
SCCF RECON,ioos:station:SCCF:18:1,2019-07-08T06:00:00Z,26.6955,-81.8138,1.038,0.28,11111222 
SCCF RECON,ioos:station:SCCF:18:1,2019-07-08T07:00:00Z,26.6955,-81.8138,0.968,0.28,11111222 
SCCF RECON,ioos:station:SCCF:18:1,2019-07-08T08:00:00Z,26.6955,-81.8138,0.92,0.28,11111222 
SCCF RECON,ioos:station:SCCF:18:1,2019-07-08T09:00:00Z,26.6955,-81.8138,0.93,0.28,11111222 
SCCF RECON,ioos:station:SCCF:18:1,2019-07-08T10:00:00Z,26.6955,-81.8138,0.99,0.28,11111222 
SCCF RECON,ioos:station:SCCF:18:1,2019-07-08T11:00:00Z,26.6955,-81.8138,1.072,0.28,11111222 
SCCF RECON,ioos:station:SCCF:18:1,2019-07-08T12:00:00Z,26.6955,-81.8138,1.143,0.28,11111222 
SCCF RECON,ioos:station:SCCF:18:1,2019-07-08T13:00:00Z,26.6955,-81.8138,1.19,0.28,11111222 
SCCF RECON,ioos:station:SCCF:18:1,2019-07-08T14:00:00Z,26.6955,-81.8138,1.23,0.28,11111222 
SCCF RECON,ioos:station:SCCF:18:1,2019-07-08T15:00:00Z,26.6955,-81.8138,1.211,0.28,11111222 
SCCF RECON,ioos:station:SCCF:18:1,2019-07-08T16:00:00Z,26.6955,-81.8138,1.15,0.28,11111222 
SCCF RECON,ioos:station:SCCF:18:1,2019-07-08T17:00:00Z,26.6955,-81.8138,1.09,0.28,11111222 
SCCF RECON,ioos:station:SCCF:18:1,2019-07-08T18:00:00Z,26.6955,-81.8138,1.047,0.28,11111222 
SCCF RECON,ioos:station:SCCF:18:1,2019-07-08T19:00:00Z,26.6955,-81.8138,1.028,0.28,11111222 
SCCF RECON,ioos:station:SCCF:18:1,2019-07-08T20:00:00Z,26.6955,-81.8138,1.0,0.27,11111222 
SCCF RECON,ioos:station:SCCF:18:1,2019-07-08T21:00:00Z,26.6955,-81.8138,0.99,0.27,11111222 
SCCF RECON,ioos:station:SCCF:18:1,2019-07-08T22:00:00Z,26.6955,-81.8138,1.04,0.28,11111222 
SCCF RECON,ioos:station:SCCF:18:1,2019-07-08T23:00:00Z,26.6955,-81.8138,1.12,0.28,11111222 
SCCF RECON,ioos:station:SCCF:18:1,2019-07-09T04:00:00Z,26.6955,-81.8138,1.148,0.28,11111222 
SCCF RECON,ioos:station:SCCF:18:1,2019-07-09T05:00:00Z,26.6955,-81.8138,1.08,0.28,11111222 
SCCF RECON,ioos:station:SCCF:18:1,2019-07-09T06:00:00Z,26.6955,-81.8138,1.04,0.27,11111222 
SCCF RECON,ioos:station:SCCF:18:1,2019-07-09T07:00:00Z,26.6955,-81.8138,0.99,0.27,11111222 
SCCF RECON,ioos:station:SCCF:18:1,2019-07-09T08:00:00Z,26.6955,-81.8138,0.94,0.27,11111222 
SCCF RECON,ioos:station:SCCF:18:1,2019-07-09T09:00:00Z,26.6955,-81.8138,0.93,0.27,11111222 
SCCF RECON,ioos:station:SCCF:18:1,2019-07-09T10:00:00Z,26.6955,-81.8138,0.972,0.28,11111222 
SCCF RECON,ioos:station:SCCF:18:1,2019-07-09T11:00:00Z,26.6955,-81.8138,1.06,0.28,11111222 
SCCF RECON,ioos:station:SCCF:18:1,2019-07-09T12:00:00Z,26.6955,-81.8138,1.14,0.29,11111222 
SCCF RECON,ioos:station:SCCF:18:1,2019-07-09T13:00:00Z,26.6955,-81.8138,1.215,0.27,11111222 
SCCF RECON,ioos:station:SCCF:18:1,2019-07-09T14:00:00Z,26.6955,-81.8138,1.262,0.28,11111222 
SCCF RECON,ioos:station:SCCF:18:1,2019-07-09T15:00:00Z,26.6955,-81.8138,1.31,0.28,11111222 
SCCF RECON,ioos:station:SCCF:18:1,2019-07-09T16:00:00Z,26.6955,-81.8138,1.35,0.28,11111222 
SCCF RECON,ioos:station:SCCF:18:1,2019-07-09T18:00:00Z,26.6955,-81.8138,1.253,0.28,11111222 
SCCF RECON,ioos:station:SCCF:18:1,2019-07-09T19:00:00Z,26.6955,-81.8138,1.222,0.28,11111222 
SCCF RECON,ioos:station:SCCF:18:1,2019-07-09T20:00:00Z,26.6955,-81.8138,1.18,0.27,11111222 
SCCF RECON,ioos:station:SCCF:18:1,2019-07-09T21:00:00Z,26.6955,-81.8138,1.123,0.27,11111222 
SCCF RECON,ioos:station:SCCF:18:1,2019-07-09T22:00:00Z,26.6955,-81.8138,1.071,0.27,11111222 
SCCF RECON,ioos:station:SCCF:18:1,2019-07-09T23:00:00Z,26.6955,-81.8138,1.07,0.27,11111222 
SCCF RECON,ioos:station:SCCF:18:1,2019-07-10T04:00:00Z,26.6955,-81.8138,1.24,0.27,11111222 
SCCF RECON,ioos:station:SCCF:18:1,2019-07-10T05:00:00Z,26.6955,-81.8138,1.173,0.27,11111222 
SCCF RECON,ioos:station:SCCF:18:1,2019-07-10T06:00:00Z,26.6955,-81.8138,1.11,0.27,11111222 
SCCF RECON,ioos:station:SCCF:18:1,2019-07-10T07:00:00Z,26.6955,-81.8138,1.052,0.27,11111222 
SCCF RECON,ioos:station:SCCF:18:1,2019-07-10T08:00:00Z,26.6955,-81.8138,1.01,0.27,11111222 
SCCF RECON,ioos:station:SCCF:18:1,2019-07-10T09:00:00Z,26.6955,-81.8138,0.97,0.27,11111222 
SCCF RECON,ioos:station:SCCF:18:1,2019-07-10T10:00:00Z,26.6955,-81.8138,0.96,0.27,11111222 
SCCF RECON,ioos:station:SCCF:18:1,2019-07-10T11:00:00Z,26.6955,-81.8138,1.018,0.27,11111222 
SCCF RECON,ioos:station:SCCF:18:1,2019-07-10T12:00:00Z,26.6955,-81.8138,1.107,0.27,11111222 
SCCF RECON,ioos:station:SCCF:18:1,2019-07-10T13:00:00Z,26.6955,-81.8138,1.18,0.28,11111222 
SCCF RECON,ioos:station:SCCF:18:1,2019-07-10T14:00:00Z,26.6955,-81.8138,1.253,0.27,11111222 
SCCF RECON,ioos:station:SCCF:18:1,2019-07-10T15:00:00Z,26.6955,-81.8138,1.31,0.27,11111222 
SCCF RECON,ioos:station:SCCF:18:1,2019-07-10T16:00:00Z,26.6955,-81.8138,1.326,0.27,11111222 
SCCF RECON,ioos:station:SCCF:18:1,2019-07-10T17:00:00Z,26.6955,-81.8138,1.28,0.27,11111222 
SCCF RECON,ioos:station:SCCF:18:1,2019-07-10T18:00:00Z,26.6955,-81.8138,1.229,0.27,11111222 
SCCF RECON,ioos:station:SCCF:18:1,2019-07-10T19:00:00Z,26.6955,-81.8138,1.18,0.27,11111222 
SCCF RECON,ioos:station:SCCF:18:1,2019-07-10T20:00:00Z,26.6955,-81.8138,1.13,0.27,11111222 
SCCF RECON,ioos:station:SCCF:18:1,2019-07-10T21:00:00Z,26.6955,-81.8138,1.08,0.27,11111222 
SCCF RECON,ioos:station:SCCF:18:1,2019-07-10T22:00:00Z,26.6955,-81.8138,1.04,0.27,11111222 
SCCF RECON,ioos:station:SCCF:18:1,2019-07-10T23:00:00Z,26.6955,-81.8138,1.0,0.27,11111222 
SCCF RECON,ioos:station:SCCF:18:1,2019-07-11T04:00:00Z,26.6955,-81.8138,1.17,0.27,11111222 
SCCF RECON,ioos:station:SCCF:18:1,2019-07-11T05:00:00Z,26.6955,-81.8138,1.184,0.27,11111222 
SCCF RECON,ioos:station:SCCF:18:1,2019-07-11T06:00:00Z,26.6955,-81.8138,1.17,0.27,11111222 
SCCF RECON,ioos:station:SCCF:18:1,2019-07-11T07:00:00Z,26.6955,-81.8138,1.11,0.27,11111222 
SCCF RECON,ioos:station:SCCF:18:1,2019-07-11T08:00:00Z,26.6955,-81.8138,1.05,0.27,11111222 
SCCF RECON,ioos:station:SCCF:18:1,2019-07-11T09:00:00Z,26.6955,-81.8138,1.01,0.26,11111222 
SCCF RECON,ioos:station:SCCF:18:1,2019-07-11T10:00:00Z,26.6955,-81.8138,0.99,0.26,11111222 
SCCF RECON,ioos:station:SCCF:18:1,2019-07-11T11:00:00Z,26.6955,-81.8138,0.998,0.26,11111222 
SCCF RECON,ioos:station:SCCF:18:1,2019-07-11T12:00:00Z,26.6955,-81.8138,1.063,0.27,11111222 
SCCF RECON,ioos:station:SCCF:18:1,2019-07-11T13:00:00Z,26.6955,-81.8138,1.153,0.27,11111222 
SCCF RECON,ioos:station:SCCF:18:1,2019-07-11T14:00:00Z,26.6955,-81.8138,1.24,0.27,11111222 
SCCF RECON,ioos:station:SCCF:18:1,2019-07-11T15:00:00Z,26.6955,-81.8138,1.306,0.27,11111222 
SCCF RECON,ioos:station:SCCF:18:1,2019-07-11T16:00:00Z,26.6955,-81.8138,1.364,0.27,11111222 
SCCF RECON,ioos:station:SCCF:18:1,2019-07-11T17:00:00Z,26.6955,-81.8138,1.4,0.27,11111222 
SCCF RECON,ioos:station:SCCF:18:1,2019-07-11T18:00:00Z,26.6955,-81.8138,1.378,0.27,11111222 
SCCF RECON,ioos:station:SCCF:18:1,2019-07-11T19:00:00Z,26.6955,-81.8138,1.349,0.27,11111222 
SCCF RECON,ioos:station:SCCF:18:1,2019-07-11T20:00:00Z,26.6955,-81.8138,1.239,0.27,11111222 
SCCF RECON,ioos:station:SCCF:18:1,2019-07-11T21:00:00Z,26.6955,-81.8138,1.24,0.26,11111222 
SCCF RECON,ioos:station:SCCF:18:1,2019-07-11T22:00:00Z,26.6955,-81.8138,1.141,0.26,11111222 
SCCF RECON,ioos:station:SCCF:18:1,2019-07-11T23:00:00Z,26.6955,-81.8138,1.09,0.26,11111222 
SCCF RECON,ioos:station:SCCF:18:1,2019-07-12T04:00:00Z,26.6955,-81.8138,1.177,0.27,11111222 
SCCF RECON,ioos:station:SCCF:18:1,2019-07-12T05:00:00Z,26.6955,-81.8138,1.18,0.27,11111222 
SCCF RECON,ioos:station:SCCF:18:1,2019-07-12T06:00:00Z,26.6955,-81.8138,1.21,0.27,11111222 
SCCF RECON,ioos:station:SCCF:18:1,2019-07-12T07:00:00Z,26.6955,-81.8138,1.24,0.27,11111222 
SCCF RECON,ioos:station:SCCF:18:1,2019-07-12T08:00:00Z,26.6955,-81.8138,1.26,0.27,11111222 
SCCF RECON,ioos:station:SCCF:18:1,2019-07-12T09:00:00Z,26.6955,-81.8138,1.251,0.26,11111222 
SCCF RECON,ioos:station:SCCF:18:1,2019-07-12T10:00:00Z,26.6955,-81.8138,1.187,0.26,11111222 
SCCF RECON,ioos:station:SCCF:18:1,2019-07-12T11:00:00Z,26.6955,-81.8138,1.13,0.26,11111222 
SCCF RECON,ioos:station:SCCF:18:1,2019-07-12T12:00:00Z,26.6955,-81.8138,1.14,0.26,11111222 
SCCF RECON,ioos:station:SCCF:18:1,2019-07-12T13:00:00Z,26.6955,-81.8138,1.207,0.26,11111222 
SCCF RECON,ioos:station:SCCF:18:1,2019-07-12T14:00:00Z,26.6955,-81.8138,1.273,0.26,11111222 
SCCF RECON,ioos:station:SCCF:18:1,2019-07-12T15:00:00Z,26.6955,-81.8138,1.334,0.26,11111222 
SCCF RECON,ioos:station:SCCF:18:1,2019-07-12T16:00:00Z,26.6955,-81.8138,1.375,0.26,11111222 
SCCF RECON,ioos:station:SCCF:18:1,2019-07-12T17:00:00Z,26.6955,-81.8138,1.402,0.26,11111222 
SCCF RECON,ioos:station:SCCF:18:1,2019-07-12T18:00:00Z,26.6955,-81.8138,1.349,0.26,11111222 
SCCF RECON,ioos:station:SCCF:18:1,2019-07-12T19:00:00Z,26.6955,-81.8138,1.261,0.26,11111222 
SCCF RECON,ioos:station:SCCF:18:1,2019-07-12T20:00:00Z,26.6955,-81.8138,1.2,0.26,11111222 
SCCF RECON,ioos:station:SCCF:18:1,2019-07-12T21:00:00Z,26.6955,-81.8138,1.144,0.26,11111222 
SCCF RECON,ioos:station:SCCF:18:1,2019-07-12T22:00:00Z,26.6955,-81.8138,1.09,0.26,11111222 
SCCF RECON,ioos:station:SCCF:18:1,2019-07-12T23:00:00Z,26.6955,-81.8138,1.04,0.26,11111222 
SCCF RECON,ioos:station:SCCF:18:1,2019-07-13T04:00:00Z,26.6955,-81.8138,1.01,0.26,11111222 
SCCF RECON,ioos:station:SCCF:18:1,2019-07-13T05:00:00Z,26.6955,-81.8138,1.062,0.26,11111222 
SCCF RECON,ioos:station:SCCF:18:1,2019-07-13T06:00:00Z,26.6955,-81.8138,1.1,0.26,11111222 
SCCF RECON,ioos:station:SCCF:18:1,2019-07-13T07:00:00Z,26.6955,-81.8138,1.11,0.26,11111222 
SCCF RECON,ioos:station:SCCF:18:1,2019-07-13T08:00:00Z,26.6955,-81.8138,1.106,0.26,11111222 
SCCF RECON,ioos:station:SCCF:18:1,2019-07-13T09:00:00Z,26.6955,-81.8138,1.077,0.26,11111222 
SCCF RECON,ioos:station:SCCF:18:1,2019-07-13T10:00:00Z,26.6955,-81.8138,1.04,0.26,11111222 
SCCF RECON,ioos:station:SCCF:18:1,2019-07-13T11:00:00Z,26.6955,-81.8138,1.01,0.26,11111222 
SCCF RECON,ioos:station:SCCF:18:1,2019-07-13T12:00:00Z,26.6955,-81.8138,1.0,0.26,11111222 
SCCF RECON,ioos:station:SCCF:18:1,2019-07-13T13:00:00Z,26.6955,-81.8138,1.03,0.26,11111222 
SCCF RECON,ioos:station:SCCF:18:1,2019-07-13T15:00:00Z,26.6955,-81.8138,1.17,0.27,11111222 
SCCF RECON,ioos:station:SCCF:18:1,2019-07-13T16:00:00Z,26.6955,-81.8138,1.239,0.27,11111222 
SCCF RECON,ioos:station:SCCF:18:1,2019-07-13T17:00:00Z,26.6955,-81.8138,1.291,0.27,11111222 
SCCF RECON,ioos:station:SCCF:18:1,2019-07-13T18:00:00Z,26.6955,-81.8138,1.328,0.27,11111222 
SCCF RECON,ioos:station:SCCF:18:1,2019-07-13T19:00:00Z,26.6955,-81.8138,1.3,0.26,11111222 
SCCF RECON,ioos:station:SCCF:18:1,2019-07-13T20:00:00Z,26.6955,-81.8138,1.22,0.26,11111222 
SCCF RECON,ioos:station:SCCF:18:1,2019-07-13T21:00:00Z,26.6955,-81.8138,1.14,0.27,11111222 
SCCF RECON,ioos:station:SCCF:18:1,2019-07-13T22:00:00Z,26.6955,-81.8138,1.039,0.26,11111222 
SCCF RECON,ioos:station:SCCF:18:1,2019-07-13T23:00:00Z,26.6955,-81.8138,1.03,0.27,11111222 
SCCF RECON,ioos:station:SCCF:18:1,2019-07-14T04:00:00Z,26.6955,-81.8138,0.891,0.27,11111222 
SCCF RECON,ioos:station:SCCF:18:1,2019-07-14T05:00:00Z,26.6955,-81.8138,0.942,0.27,11111222 
SCCF RECON,ioos:station:SCCF:18:1,2019-07-14T06:00:00Z,26.6955,-81.8138,1.0,0.28,11111222 
SCCF RECON,ioos:station:SCCF:18:1,2019-07-14T07:00:00Z,26.6955,-81.8138,1.05,0.28,11111222 
SCCF RECON,ioos:station:SCCF:18:1,2019-07-14T08:00:00Z,26.6955,-81.8138,1.073,0.27,11111222 